Bloomington, IN

12:46 AM EDT on August 25, 2016 (GMT -0400)
Monroe County

Weather History for KBMG - October, 2014

Change the Weather History Date:

Wednesday, October 29, 2014

  Actual Average Record
Temperature  
Mean Temperature 47 °F 51 °F  
Max Temperature 56 °F 63 °F 78 °F (2004)
Min Temperature 38 °F 39 °F 28 °F (2005)
Degree Days  
Heating Degree Days 18 14  
Month to date heating degree days 281 304  
Since 1 July heating degree days 385 389  
Cooling Degree Days 0 0  
Month to date cooling degree days 11 11  
Year to date cooling degree days 904 924  
Moisture  
Dew Point 36 °F    
Average Humidity 69    
Maximum Humidity 92    
Minimum Humidity 46    
Precipitation  
Precipitation 0.00 in 0.10 in 1.20 in (2002)
Month to date precipitation 5.33 3.33  
Year to date precipitation 40.07 39.87  
Sea Level Pressure  
Sea Level Pressure 30.11 in    
Wind  
Wind Speed 7 mph (WNW)    
Max Wind Speed 20 mph    
Max Gust Speed 26 mph    
Visibility 10 miles    
Events      
T = Trace of Precipitation, MM = Missing Value Source: NWS Daily Summary

Daily Weather History Graph

Daily Weather History Graph

Search for Another Location

Airport or City:

Trip Planner

Search our weather history database for the weather conditions in past years. The results will help you decide how hot, cold, wet, or windy it might be!

Date:

Astronomy

Oct. 29, 2014 Rise Set
Actual Time 8:10 AM EDT 6:48 PM EDT
Civil Twilight 7:43 AM EDT 7:16 PM EDT
Nautical Twilight 7:11 AM EDT 7:47 PM EDT
Astronomical Twilight 6:40 AM EDT 8:19 PM EDT
Moon 1:28 PM EDT (10/29) 11:58 PM EDT (10/29)
Length of Visible Light 11h 33m
Length of Day
10h 38m
Waxing Crescent, 34% of the Moon is Illuminated
Oct 29
Waxing Crescent
Oct 30
First Quarter
Nov 6
Full
Nov 14
Last Quarter
Nov 22
New

Hourly Weather History & Observations

Time (EDT) Temp. Windchill Dew Point Humidity Pressure Visibility Wind Dir Wind Speed Gust Speed Precip Events Conditions
12:53 AM 52.0 °F - 35.1 °F 53% 30.06 in 10.0 mi West 8.1 mph - N/A   Clear
1:53 AM 51.1 °F - 36.0 °F 56% 30.06 in 10.0 mi WNW 4.6 mph - N/A   Clear
2:53 AM 48.9 °F - 37.0 °F 64% 30.06 in 10.0 mi WSW 3.5 mph - N/A   Clear
3:53 AM 45.0 °F - 37.9 °F 76% 30.07 in 10.0 mi Calm Calm - N/A   Clear
4:53 AM 42.1 °F - 37.0 °F 82% 30.07 in 10.0 mi Calm Calm - N/A   Clear
5:53 AM 39.9 °F - 37.0 °F 89% 30.09 in 10.0 mi Calm Calm - N/A   Clear
6:53 AM 39.9 °F 36.7 °F 36.0 °F 86% 30.09 in 10.0 mi West 4.6 mph - N/A   Clear
7:53 AM 39.0 °F 35.7 °F 36.0 °F 89% 30.10 in 10.0 mi West 4.6 mph - N/A   Clear
8:53 AM 42.1 °F 39.2 °F 37.0 °F 82% 30.10 in 10.0 mi West 4.6 mph - N/A   Clear
9:53 AM 46.9 °F - 36.0 °F 66% 30.11 in 10.0 mi West 8.1 mph - N/A   Clear
10:53 AM 48.9 °F - 35.1 °F 59% 30.12 in 10.0 mi West 10.4 mph - N/A   Clear
11:53 AM 51.1 °F - 36.0 °F 56% 30.12 in 10.0 mi West 12.7 mph 20.7 mph N/A   Clear
12:53 PM 53.1 °F - 34.0 °F 48% 30.11 in 10.0 mi WNW 16.1 mph 24.2 mph N/A   Clear
1:53 PM 53.1 °F - 35.1 °F 50% 30.10 in 10.0 mi West 12.7 mph - N/A   Partly Cloudy
2:53 PM 55.0 °F - 35.1 °F 47% 30.09 in 10.0 mi West 12.7 mph 19.6 mph N/A   Mostly Cloudy
3:53 PM 54.0 °F - 35.1 °F 49% 30.09 in 10.0 mi WNW 9.2 mph 20.7 mph N/A   Partly Cloudy
4:53 PM 54.0 °F - 35.1 °F 49% 30.11 in 10.0 mi WNW 12.7 mph 19.6 mph N/A   Mostly Cloudy
5:53 PM 51.1 °F - 34.0 °F 52% 30.12 in 10.0 mi WNW 6.9 mph - N/A   Mostly Cloudy
6:53 PM 50.0 °F - 35.1 °F 57% 30.13 in 10.0 mi NNW 3.5 mph - N/A   Overcast
7:53 PM 48.9 °F - 35.1 °F 59% 30.15 in 10.0 mi NNW 6.9 mph - N/A   Overcast
8:53 PM 48.0 °F - 35.1 °F 61% 30.15 in 10.0 mi Variable 4.6 mph - N/A   Overcast
9:53 PM 46.9 °F - 35.1 °F 63% 30.15 in 10.0 mi Variable 5.8 mph - N/A   Overcast
10:53 PM 46.0 °F 42.5 °F 35.1 °F 66% 30.16 in 10.0 mi North 6.9 mph - N/A   Overcast
11:53 PM 45.0 °F 42.6 °F 35.1 °F 68% 30.16 in 10.0 mi North 4.6 mph - N/A   Overcast